[[{"header":{"parameterUnit":"m.s-1","parameterCategory":1,"la1":30.2992,"la2":30.254,"lo1":-89.0895,"lo2":-89.0443,"dy":0.0025,"dx":0.0025,"nx":19,"ny":19,"refTime":"2026-05-24T03:00:00:Z","depth":0,"parameterNumber":2,"parameterNumberName":"U-component_of_WINDS"},"data":[0,0,0,-5.0875,-5.0879,-5.1045,-5.1046,-5.1255,-5.1257,0,0,0,0,0,0,0,0,0,0,0,-5.0828,-5.0829,-5.0875,-5.0879,-5.1045,-5.1046,-5.1255,-5.1257,0,0,0,0,0,0,0,0,0,0,0,-5.0827,-5.0829,-5.0831,-5.088,-5.1045,-5.1046,-5.1254,-5.1129,0,0,0,0,0,0,0,0,0,0,-5.0967,-5.0927,-5.0829,-5.0831,-5.0881,-5.1045,-5.1046,-5.1123,-5.1137,-5.118,0,-5.1222,0,-5.1244,-5.1271,-5.1272,0,0,0,-5.0876,-5.0916,-5.0959,-5.0831,-5.0882,-5.1045,-5.0969,-5.1131,-5.1146,-5.1198,-5.1225,-5.1233,-5.1247,-5.1273,-5.1274,-5.1543,-5.1544,0,0,-5.0867,-5.0858,-5.0949,-5.097,-5.0949,-5.0964,-5.0974,-5.114,-5.1167,-5.1226,-5.1238,-5.125,-5.1274,-5.1276,-5.1541,-5.1543,0,0,0,-5.0842,-5.0851,-5.0891,-5.0961,-5.0992,-5.0969,-5.0981,-5.116,-5.1174,-5.124,-5.1253,-5.1275,-5.1278,-5.154,-5.1542,-5.1604,0,0,0,-5.0837,-5.0837,-5.0887,-5.0883,-5.0989,-5.1079,-5.0997,-5.1162,-5.1181,-5.1252,-5.1275,-5.128,-5.1538,-5.1541,-5.1599,-5.1633,0,0,0,-5.0816,-5.0835,-5.086,-5.0882,-5.0954,-5.1076,-5.11,-5.1167,-5.1189,-5.1272,-5.128,-5.1537,-5.1541,-5.1594,-5.1625,-5.1701,0,0,0,-5.079,-5.0909,-5.0861,-5.0999,-5.0953,-5.1115,-5.1099,-5.1219,-5.1297,-5.1276,-5.1539,-5.1542,-5.1593,-5.1621,-5.1696,-5.1762,-5.1789,0,0,-5.0935,-5.0927,-5.1009,-5.097,-5.114,-5.109,-5.1268,-5.1345,-5.1359,-5.148,-5.1486,-5.16,-5.1625,-5.17,-5.1948,-5.197,0,0,0,-5.1052,-5.111,-5.1158,-5.1235,-5.1301,-5.1359,-5.1412,-5.1441,-5.1545,-5.1421,-5.1649,-5.1664,-5.1708,-5.174,-5.1758,-5.1796,-5.1557,-5.1556,-5.1556,-5.1241,-5.1257,-5.1394,-5.1431,-5.1506,-5.1562,-5.1622,-5.167,-5.1661,-5.1715,-5.175,-5.1899,-5.1936,-5.195,-5.1989,-5.1787,-5.1788,-5.1788,-5.1788,-5.1454,-5.1539,-5.153,-5.1659,-5.1674,-5.1781,-5.184,-5.183,-5.193,-5.1873,-5.1913,-5.1848,-5.1973,-5.2008,-5.1793,-5.1792,-5.1791,-5.1791,-5.1791,-5.1578,-5.1621,-5.1659,-5.1774,-5.186,-5.1892,-5.1991,-5.2,-5.2009,-5.2048,-5.2086,-5.2085,-5.2083,-5.2066,-5.2067,-5.2068,-5.2068,-5.2068,-5.2069,-5.169,-5.1731,-5.1815,-5.1899,-5.1951,-5.202,-5.2079,-5.2129,-5.2186,-5.2184,-5.2185,-5.2169,-5.1984,-5.1936,-5.2077,-5.2075,-5.2074,-5.2073,-5.2073,-5.1896,-5.1852,-5.1982,-5.2035,-5.2134,-5.2219,-5.2232,-5.2333,-5.2376,-5.2423,-5.2401,-5.2264,-5.2253,-5.2239,-5.2199,-5.2399,-5.2399,-5.2399,-5.2399,-5.1999,-5.1997,-5.2133,-5.2217,-5.23,-5.2326,-5.2469,-5.2516,-5.2557,-5.2584,-5.2557,-5.2506,-5.2491,-5.249,-5.247,-5.2432,-5.2687,-5.2688,-5.2688,-5.2125,-5.2133,-5.2254,-5.2299,-5.2379,-5.2445,-5.258,-5.2673,-5.271,-5.27,-5.2605,-5.2593,-5.2511,-5.2484,-5.2467,-5.2436,-5.2368,0,0]},{"header":{"parameterUnit":"m.s-1","parameterCategory":1,"la1":30.2992,"la2":30.254,"lo1":-89.0895,"lo2":-89.0443,"dy":0.0025,"dx":0.0025,"nx":19,"ny":19,"refTime":"2026-05-24T03:00:00:Z","depth":0,"parameterNumber":3,"parameterNumberName":"V-component_of_WINDS"},"data":[0,0,0,1.7432,1.7428,1.7197,1.7196,1.6918,1.6916,0,0,0,0,0,0,0,0,0,0,0,1.7516,1.7514,1.7433,1.7428,1.7197,1.7196,1.6919,1.6916,0,0,0,0,0,0,0,0,0,0,0,1.7516,1.7515,1.7513,1.7427,1.7198,1.7196,1.6919,1.7086,0,0,0,0,0,0,0,0,0,0,1.7306,1.7399,1.7515,1.7513,1.7426,1.7198,1.7196,1.7094,1.7076,1.7032,0,1.7001,0,1.6955,1.6899,1.6898,0,0,0,1.7415,1.7414,1.7339,1.7513,1.7424,1.7198,1.7298,1.7083,1.7063,1.7008,1.6997,1.6986,1.695,1.6897,1.6896,1.6698,1.6697,0,0,1.7428,1.7481,1.7354,1.7327,1.7369,1.7305,1.7291,1.7071,1.706,1.6996,1.6979,1.6946,1.6896,1.6894,1.6698,1.6697,0,0,0,1.7473,1.749,1.742,1.7339,1.7297,1.7299,1.7282,1.707,1.7043,1.6976,1.6942,1.6894,1.6891,1.6698,1.6698,1.6735,0,0,0,1.748,1.7517,1.7426,1.7457,1.7301,1.7181,1.7287,1.7058,1.7031,1.6944,1.6894,1.6889,1.6698,1.6698,1.6734,1.6742,0,0,0,1.7525,1.7522,1.7494,1.746,1.7364,1.7184,1.7143,1.7051,1.7012,1.6898,1.6888,1.6699,1.6698,1.6734,1.6741,1.6705,0,0,0,1.7588,1.7528,1.7496,1.7415,1.7366,1.7211,1.7144,1.7024,1.6932,1.6893,1.6698,1.6698,1.6734,1.6741,1.6706,1.6684,1.6681,0,0,1.7541,1.7524,1.7472,1.7437,1.7302,1.7241,1.7109,1.697,1.6908,1.677,1.6764,1.6735,1.6741,1.6705,1.6647,1.6645,0,0,0,1.7475,1.7438,1.7391,1.7308,1.7205,1.7115,1.6993,1.6942,1.6823,1.685,1.6711,1.6713,1.669,1.6677,1.6675,1.665,1.6695,1.6695,1.6695,1.7482,1.7411,1.732,1.7221,1.7141,1.7017,1.6944,1.6853,1.68,1.6769,1.6727,1.6701,1.6688,1.6686,1.6662,1.6711,1.6711,1.6711,1.6711,1.7405,1.7342,1.7278,1.7167,1.7091,1.6995,1.6873,1.6839,1.6736,1.6726,1.6702,1.6696,1.6687,1.6661,1.6713,1.6713,1.6713,1.6713,1.6712,1.7401,1.7358,1.7301,1.7175,1.7085,1.6985,1.6891,1.6823,1.6758,1.6734,1.6681,1.6681,1.667,1.6715,1.6715,1.6714,1.6714,1.6714,1.6714,1.7418,1.7353,1.7284,1.7172,1.711,1.702,1.6897,1.6833,1.6744,1.6701,1.67,1.665,1.6701,1.6714,1.6712,1.6713,1.6713,1.6713,1.6713,1.7364,1.7366,1.7261,1.72,1.7062,1.6977,1.6894,1.6769,1.6706,1.6661,1.6617,1.6667,1.6642,1.6643,1.6653,1.6635,1.6635,1.6635,1.6635,1.7359,1.7342,1.7219,1.7126,1.7027,1.6942,1.6821,1.6724,1.6623,1.6579,1.6572,1.6581,1.6585,1.6557,1.656,1.6568,1.6529,1.6529,1.6529,1.7321,1.7292,1.7203,1.711,1.6998,1.6903,1.6786,1.6678,1.6564,1.6523,1.6542,1.6547,1.656,1.6568,1.6526,1.6531,1.6545,0,0]}]]